FW4381 Weather Reports


time (UTC)temp
F
wind
direction
speed
knots
gust
knots
rain 1hr
in
rain 24hr
in
rain mn
in
humidity
%
barometer
mb
20260506091528 61 0 0.0 0.0 0.00 0.00 0.00 91 1016.3
20260506090032 61 0 0.0 0.0 0.00 0.00 0.00 91 1016.2
20260506084539 61 0 0.0 0.9 0.00 0.00 0.00 91 1016.5
20260506083032 61 0 0.0 0.0 0.00 0.00 0.00 90 1016.3
20260506081529 62 0 0.0 0.0 0.00 0.00 0.00 90 1016.4
20260506073032 62 0 0.0 0.0 0.00 0.00 0.00 90 1016.5
20260506071532 62 0 0.0 0.0 0.00 0.00 0.00 89 1016.6
20260506061528 65 0 0.0 0.0 0.00 0.00 0.00 87 1016.7
20260506044540 66 217 0.0 5.2 0.00 0.00 0.00 85 1017.6
20260506043030 66 231 1.7 4.3 0.00 0.00 0.00 85 1017.7
20260506041530 66 232 1.7 4.3 0.00 0.00 0.00 85 1017.8
20260506040031 66 218 0.9 4.3 0.00 0.00 0.00 85 1017.9
20260506034528 66 214 0.9 4.3 0.00 0.00 0.00 84 1017.9
20260506033035 66 221 2.6 7.0 0.00 0.00 0.00 84 1017.8
20260506031536 67 221 0.9 6.1 0.00 0.00 0.00 84 1018.0
20260506030050 67 202 3.5 8.7 0.00 0.00 0.00 84 1018.0
20260506024542 67 235 3.5 7.0 0.00 0.00 0.00 84 1017.9
20260506023030 67 220 3.5 7.0 0.00 0.00 0.00 84 1018.0
20260506021528 67 223 4.3 8.7 0.00 0.00 0.00 84 1018.0
20260506020033 67 219 2.6 7.0 0.00 0.00 0.00 85 1017.9
20260506014539 67 216 1.7 7.8 0.00 0.00 0.00 86 1017.8
20260506013032 67 200 3.5 6.1 0.00 0.00 0.00 85 1017.7
20260506011537 67 196 3.5 6.1 0.00 0.00 0.00 84 1017.7
20260506010031 67 227 2.6 7.0 0.00 0.00 0.00 83 1017.7
20260506004544 68 228 2.6 7.0 0.00 0.00 0.00 81 1017.7
20260506003039 68 237 2.6 7.0 0.00 0.00 0.00 80 1017.7
20260506001531 69 233 2.6 7.0 0.00 0.00 0.00 79 1017.7
20260506000030 69 225 2.6 8.7 0.00 0.00 0.00 78 1017.6
20260505234534 69 237 2.6 7.0 0.00 0.00 0.00 77 1017.3
20260505233029 70 226 3.5 9.6 0.00 0.00 0.00 75 1017.5
20260505231529 70 248 5.2 12.2 0.00 0.00 0.00 75 1017.4
20260505230042 70 245 5.2 13.9 0.00 0.00 0.00 75 1017.3
20260505224535 71 198 2.6 12.2 0.00 0.00 0.00 75 1017.4
20260505223029 71 246 4.3 10.4 0.00 0.00 0.00 74 1017.4
20260505221532 71 203 4.3 10.4 0.00 0.00 0.00 75 1017.4
20260505220040 71 244 6.1 17.4 0.00 0.00 0.00 74 1017.3
20260505214534 71 244 3.5 12.2 0.00 0.00 0.00 72 1017.1
20260505213035 71 217 3.5 13.9 0.00 0.00 0.00 74 1017.3
20260505211528 72 225 5.2 12.2 0.00 0.00 0.00 72 1017.4
20260505210027 72 213 3.5 11.3 0.00 0.00 0.00 73 1017.5
20260505204535 72 244 6.1 12.2 0.00 0.00 0.00 73 1017.3
20260505203033 72 220 5.2 17.4 0.00 0.00 0.00 71 1017.4
20260505201533 73 259 4.3 10.4 0.00 0.00 0.00 69 1017.8
20260505200028 73 290 6.1 16.5 0.00 0.00 0.00 71 1017.9
20260505194527 73 209 7.8 13.9 0.00 0.00 0.00 72 1018.1
20260505193035 73 207 4.3 16.5 0.00 0.00 0.00 71 1018.3
20260505191528 74 240 2.6 11.3 0.00 0.00 0.00 69 1018.3
20260505190036 73 231 6.1 14.8 0.00 0.00 0.00 73 1018.4
20260505184531 73 244 5.2 12.2 0.00 0.00 0.00 71 1018.4
20260505183030 73 223 7.8 12.2 0.00 0.00 0.00 72 1018.6
20260505181532 73 360 5.2 13.9 0.00 0.00 0.00 72 1018.5
20260505180037 72 200 7.8 13.0 0.00 0.00 0.00 73 1018.6
20260505174530 74 235 4.3 17.4 0.00 0.00 0.00 70 1018.7
20260505173027 73 237 1.7 15.6 0.00 0.00 0.00 71 1018.7
20260505171530 73 231 6.1 13.9 0.00 0.00 0.00 70 1018.7
20260505170031 74 216 7.8 14.8 0.00 0.00 0.00 68 1018.8
20260505164534 74 230 8.7 14.8 0.00 0.00 0.00 68 1019.0
20260505163036 74 219 7.0 13.0 0.00 0.00 0.00 67 1018.8
20260505161528 73 257 7.8 15.6 0.00 0.00 0.00 68 1018.9
20260505153039 73 254 4.3 9.6 0.00 0.00 0.00 63 1019.0
20260505151530 73 255 2.6 7.0 0.00 0.00 0.00 64 1018.9
20260505124531 68 229 2.6 7.8 0.00 0.00 0.00 82 1019.1
20260505123042 67 235 1.7 6.1 0.00 0.00 0.00 85 1019.0
20260505121533 66 250 2.6 7.0 0.00 0.00 0.00 87 1019.1
20260505120043 65 223 1.7 5.2 0.00 0.00 0.00 88 1018.9
20260505114531 64 209 2.6 4.3 0.00 0.00 0.00 90 1018.9
20260505113031 61 0 0.0 0.0 0.00 0.00 0.00 92 1018.7
20260505111533 58 0 0.0 0.0 0.00 0.00 0.00 91 1018.6
20260505101535 57 0 0.0 0.0 0.00 0.00 0.00 91 1017.9
20260505100033 58 0 0.0 1.7 0.00 0.00 0.00 91 1017.7
20260505094528 58 0 0.0 0.0 0.00 0.00 0.00 91 1017.6
20260505093030 58 0 0.0 0.0 0.00 0.00 0.00 90 1017.5